[[{"header":{"parameterUnit":"m.s-1","parameterCategory":1,"la1":30.2991,"la2":30.254,"lo1":-89.0895,"lo2":-89.0444,"dy":0.0017,"dx":0.0017,"nx":28,"ny":28,"refTime":"2025-12-15T09:00:00:Z","depth":0,"parameterNumber":2,"parameterNumberName":"U-component_of_WINDS"},"data":[0,0,0,0,0,0,0,0,0,0,0,0,0,0,0,0,0,0,0,0,0,0,0,0,0,0,0,0,0,0,0,0,0,0,0,0,0,0,0,0,0,0,0,0,0,0,0,0,0,0,0,0,0,0,0,0,0,0,-2.4016,-2.4017,0,-2.4072,-2.4072,-2.4073,-2.399,-2.3987,-2.3984,-2.3981,-2.4039,-2.4043,-2.4047,0,0,0,0,0,0,0,0,0,0,0,0,0,-2.3838,-2.3842,-2.4016,-2.4017,-2.4018,-2.4072,-2.4072,-2.4073,-2.399,-2.3986,-2.3983,-2.398,-2.4037,-2.4043,-2.4048,0,0,0,0,0,0,0,0,0,0,0,0,0,-2.3907,-2.3843,-2.4016,-2.3983,-2.398,-2.4071,-2.4072,-2.4073,-2.3991,-2.3986,-2.3982,-2.3978,-2.4036,-2.4042,-2.4048,-2.4175,0,0,-2.4068,-2.4071,0,0,0,0,0,0,0,0,-2.3903,-2.3914,-2.3987,-2.3985,-2.3983,-2.4019,-2.4031,-2.4108,-2.3992,-2.3987,-2.3981,-2.3976,-2.4036,-2.4042,-2.4062,-2.4178,-2.4181,-2.4068,-2.4072,-2.4075,-2.4077,0,0,0,0,0,0,0,-2.3899,-2.3911,-2.4038,-2.3988,-2.3985,-2.3965,-2.397,-2.4045,-2.4035,-2.3987,-2.3981,-2.3989,-2.4034,-2.4056,-2.4063,-2.4181,-2.4068,-2.4074,-2.4078,-2.408,-2.4403,-2.4408,0,0,0,0,0,0,-2.3898,-2.3907,-2.4036,-2.404,-2.3931,-2.3972,-2.3977,-2.4012,-2.4034,-2.4033,-2.3992,-2.3985,-2.4047,-2.4055,-2.4065,-2.4215,-2.4075,-2.4081,-2.4085,-2.4399,-2.4404,-2.441,0,0,0,0,0,0,-2.3894,-2.391,-2.4034,-2.3972,-2.3986,-2.3979,-2.4019,-2.4015,-2.4037,-2.4038,-2.4036,-2.4017,-2.4044,-2.4056,-2.4148,-2.4216,-2.4084,-2.409,-2.4393,-2.44,-2.4407,-2.4517,0,0,0,0,0,0,-2.389,-2.3909,-2.3958,-2.3974,-2.399,-2.4118,-2.4023,-2.402,-2.4049,-2.4039,-2.4061,-2.406,-2.4042,-2.4139,-2.4155,-2.4222,-2.4095,-2.4387,-2.4396,-2.4405,-2.4507,-2.4527,-2.4543,0,0,0,0,0,-2.3884,-2.3987,-2.3961,-2.3977,-2.405,-2.4122,-2.4131,-2.4107,-2.4054,-2.4103,-2.4103,-2.4059,-2.4205,-2.4149,-2.4166,-2.4237,-2.4383,-2.4394,-2.4404,-2.4499,-2.4523,-2.4543,0,0,0,0,0,0,-2.398,-2.3989,-2.396,-2.4071,-2.4096,-2.4107,-2.4168,-2.4133,-2.4174,-2.4164,-2.4132,-2.4138,-2.4237,-2.4246,-2.4183,-2.436,-2.4285,-2.43,-2.4352,-2.4374,-2.4392,-2.4389,-2.41,0,0,0,0,0,-2.4014,-2.4071,-2.4075,-2.4173,-2.4187,-2.4176,-2.4206,-2.4185,-2.421,-2.422,-2.4227,-2.4253,-2.4305,-2.4339,-2.4387,-2.4507,-2.451,-2.4563,-2.4581,-2.4596,-2.461,-2.4674,-2.4697,-2.4445,-2.4444,-2.4444,0,0,-2.4086,-2.4097,-2.4135,-2.4193,-2.421,-2.427,-2.4185,-2.4252,-2.4296,-2.423,-2.4319,-2.4324,-2.4351,-2.4458,-2.4505,-2.4468,-2.468,-2.461,-2.4622,-2.4628,-2.4687,-2.4711,-2.4733,-2.4452,-2.445,-2.4449,0,0,-2.4247,-2.4261,-2.4344,-2.4363,-2.4389,-2.438,-2.44,-2.4416,-2.4418,-2.4505,-2.4457,-2.4508,-2.4598,-2.4619,-2.4641,-2.4808,-2.4769,-2.4824,-2.492,-2.4983,-2.5002,-2.502,-2.508,-2.5102,-2.4837,-2.4837,-2.4837,0,-2.4333,-2.4421,-2.4392,-2.4462,-2.4489,-2.443,-2.4515,-2.4534,-2.4575,-2.4594,-2.4551,-2.4662,-2.4675,-2.4786,-2.4827,-2.4847,-2.4869,-2.4823,-2.5002,-2.5019,-2.5035,-2.5092,-2.5115,-2.4844,-2.4843,-2.4842,-2.4842,0,-2.4526,-2.4587,-2.4651,-2.4692,-2.4725,-2.4802,-2.4784,-2.4822,-2.4797,-2.4793,-2.4882,-2.4896,-2.4946,-2.497,-2.4947,-2.5077,-2.5053,-2.5007,-2.4931,-2.5066,-2.512,-2.5141,-2.4853,-2.4851,-2.4849,-2.4847,0,0,-2.4752,-2.4773,-2.4798,-2.4815,-2.4839,-2.4886,-2.4959,-2.5007,-2.504,-2.5069,-2.513,-2.5206,-2.5163,-2.5188,-2.5167,-2.5221,-2.5353,-2.5168,-2.5168,-2.5203,-2.5498,-2.5534,-2.556,-2.5326,-2.533,-2.5334,-2.5496,0,-2.4914,-2.5041,-2.5016,-2.5141,-2.5197,-2.5141,-2.5205,-2.5227,-2.5224,-2.5271,-2.5268,-2.5323,-2.5261,-2.5276,-2.5327,-2.5326,-2.5412,-2.5314,-2.5384,-2.5387,-2.5381,-2.5588,-2.5627,-2.5779,-2.5516,-2.552,-2.5523,0,-2.512,-2.5156,-2.5287,-2.53,-2.5323,-2.5382,-2.5422,-2.5468,-2.5491,-2.5485,-2.5512,-2.548,-2.5553,-2.5474,-2.5574,-2.5508,-2.5535,-2.5538,-2.5544,-2.5551,-2.5465,-2.5602,-2.5827,-2.5851,-2.5555,-2.5552,-2.555,0,-2.5274,-2.5355,-2.5443,-2.546,-2.5478,-2.552,-2.5529,-2.5547,-2.5577,-2.5612,-2.5631,-2.5675,-2.5699,-2.5733,-2.5713,-2.5658,-2.5817,-2.5737,-2.5814,-2.5815,-2.5853,-2.5851,-2.6087,-2.5867,-2.5867,-2.5866,-2.5866,0,-2.5458,-2.554,-2.5512,-2.5567,-2.5657,-2.5627,-2.5717,-2.5719,-2.5736,-2.579,-2.5743,-2.5795,-2.5764,-2.5813,-2.5798,-2.5883,-2.5894,-2.5892,-2.5887,-2.5897,-2.5898,-2.5916,-2.5905,-2.5872,-2.5871,-2.587,-2.5869,0,-2.5646,-2.5631,-2.5724,-2.5732,-2.5736,-2.5802,-2.5809,-2.586,-2.5853,-2.5922,-2.5936,-2.5925,-2.598,-2.5963,-2.6022,-2.6012,-2.612,-2.6101,-2.6113,-2.6109,-2.6188,-2.6182,-2.6446,-2.6479,-2.6236,-2.6238,-2.624,0,-2.5766,-2.5828,-2.5842,-2.5875,-2.5888,-2.5941,-2.5971,-2.5942,-2.5975,-2.6004,-2.6051,-2.6102,-2.6142,-2.6232,-2.623,-2.6275,-2.6257,-2.6346,-2.6264,-2.6272,-2.626,-2.6257,-2.6263,-2.6364,-2.6367,-2.6369,-2.6371,0,-2.598,-2.5969,-2.6014,-2.6056,-2.6092,-2.6124,-2.6151,-2.6181,-2.6153,-2.6192,-2.6248,-2.6279,-2.6338,-2.639,-2.643,-2.6439,-2.6402,-2.6396,-2.6417,-2.6429,-2.6434,-2.6433,-2.616,-2.6391,-2.6389,-2.6387,-2.6386,-2.6386,-2.6139,-2.6191,-2.6209,-2.626,-2.6277,-2.6304,-2.6352,-2.635,-2.6395,-2.6442,-2.6422,-2.6486,-2.6505,-2.6555,-2.657,-2.6619,-2.6585,-2.6615,-2.6623,-2.6631,-2.6642,-2.6424,-2.6626,-2.6626,-2.6625,-2.6625,-2.6624,0,-2.6352,-2.636,-2.6407,-2.6447,-2.6487,-2.6445,-2.6473,-2.6509,-2.6566,-2.6587,-2.6627,-2.669,-2.6739,-2.6739,-2.6784,-2.6824,-2.6808,-2.6837,-2.6835,-2.6838,-2.6669,-2.6647,-2.685,-2.685,-2.6849,-2.6849,-2.6849,-2.6849,-2.6468,-2.6554,-2.6545,-2.6639,-2.6646,-2.6709,-2.6728,-2.6752,-2.6768,-2.6841,-2.6881,-2.6881,-2.6893,-2.6939,-2.6981,-2.698,-2.7,-2.7036,-2.7029,-2.6872,-2.685,-2.6828,-2.6808,-2.704,-2.7041,-2.7193,-2.7194,-2.7195]},{"header":{"parameterUnit":"m.s-1","parameterCategory":1,"la1":30.2991,"la2":30.254,"lo1":-89.0895,"lo2":-89.0444,"dy":0.0017,"dx":0.0017,"nx":28,"ny":28,"refTime":"2025-12-15T09:00:00:Z","depth":0,"parameterNumber":3,"parameterNumberName":"V-component_of_WINDS"},"data":[0,0,0,0,0,0,0,0,0,0,0,0,0,0,0,0,0,0,0,0,0,0,0,0,0,0,0,0,0,0,0,0,0,0,0,0,0,0,0,0,0,0,0,0,0,0,0,0,0,0,0,0,0,0,0,0,0,0,-8.3336,-8.3338,0,-8.3493,-8.3494,-8.3496,-8.3392,-8.3388,-8.3383,-8.3378,-8.3532,-8.354,-8.3548,0,0,0,0,0,0,0,0,0,0,0,0,0,-8.294,-8.2948,-8.3336,-8.3338,-8.334,-8.3492,-8.3494,-8.3497,-8.3393,-8.3387,-8.3382,-8.3376,-8.3529,-8.3539,-8.3549,0,0,0,0,0,0,0,0,0,0,0,0,0,-8.3106,-8.295,-8.3336,-8.3307,-8.3306,-8.3492,-8.3494,-8.3497,-8.3394,-8.3387,-8.338,-8.3374,-8.3525,-8.3538,-8.355,-8.3771,0,0,-8.3589,-8.3595,0,0,0,0,0,0,0,0,-8.3096,-8.312,-8.3309,-8.3309,-8.3309,-8.3416,-8.3411,-8.3589,-8.3396,-8.3361,-8.3378,-8.337,-8.3498,-8.3513,-8.3557,-8.3778,-8.3785,-8.359,-8.3598,-8.3604,-8.3607,0,0,0,0,0,0,0,-8.3085,-8.3113,-8.3398,-8.3312,-8.3312,-8.3284,-8.3299,-8.3444,-8.3467,-8.3363,-8.3356,-8.3376,-8.3497,-8.3546,-8.356,-8.3787,-8.359,-8.3601,-8.3609,-8.3614,-8.4194,-8.4201,0,0,0,0,0,0,-8.3077,-8.3104,-8.3393,-8.3402,-8.3183,-8.3297,-8.3314,-8.3388,-8.3465,-8.347,-8.3382,-8.3371,-8.3527,-8.3546,-8.3565,-8.3828,-8.3603,-8.3615,-8.3623,-8.4186,-8.4196,-8.4204,0,0,0,0,0,0,-8.3069,-8.3104,-8.3386,-8.3252,-8.3285,-8.3311,-8.3395,-8.3395,-8.3444,-8.348,-8.3483,-8.3429,-8.3522,-8.3547,-8.3721,-8.3832,-8.3621,-8.3633,-8.4177,-8.4189,-8.42,-8.4355,0,0,0,0,0,0,-8.3058,-8.3102,-8.3188,-8.3254,-8.3293,-8.3542,-8.3402,-8.3403,-8.3467,-8.3454,-8.3524,-8.3529,-8.3519,-8.3702,-8.3733,-8.3845,-8.3643,-8.4167,-8.4183,-8.4196,-8.434,-8.4371,-8.4397,0,0,0,0,0,-8.3044,-8.3224,-8.3193,-8.3228,-8.3402,-8.3549,-8.3571,-8.3558,-8.3477,-8.3562,-8.3585,-8.3526,-8.3815,-8.3721,-8.3755,-8.3872,-8.416,-8.4178,-8.4195,-8.4328,-8.4365,-8.4396,0,0,0,0,0,0,-8.3168,-8.3232,-8.3198,-8.3405,-8.3473,-8.3531,-8.3639,-8.3598,-8.3688,-8.3671,-8.3648,-8.3665,-8.3846,-8.3876,-8.3771,-8.4089,-8.3974,-8.3999,-8.4063,-8.4099,-8.4126,-8.4115,-8.3653,0,0,0,0,0,-8.322,-8.3336,-8.3385,-8.3563,-8.3599,-8.3614,-8.3677,-8.3661,-8.3729,-8.3756,-8.3791,-8.3857,-8.3962,-8.4032,-8.4131,-8.4344,-8.4356,-8.4441,-8.4469,-8.4492,-8.4514,-8.4627,-8.4665,-8.4262,-8.4261,-8.4261,0,0,-8.3327,-8.3376,-8.3451,-8.3589,-8.3639,-8.3758,-8.3638,-8.3769,-8.3856,-8.3775,-8.3942,-8.397,-8.4041,-8.4235,-8.4322,-8.4266,-8.4628,-8.4515,-8.4533,-8.4542,-8.4649,-8.4687,-8.4721,-8.4273,-8.4271,-8.4269,0,0,-8.3583,-8.3633,-8.3787,-8.384,-8.3918,-8.3926,-8.3963,-8.4028,-8.4044,-8.4212,-8.4153,-8.4254,-8.4437,-8.449,-8.4541,-8.4816,-8.4765,-8.4848,-8.4996,-8.5106,-8.5138,-8.5166,-8.5263,-8.5299,-8.487,-8.4871,-8.4871,0,-8.3706,-8.3886,-8.387,-8.4006,-8.4067,-8.4001,-8.4155,-8.4206,-8.4312,-8.4355,-8.429,-8.4517,-8.456,-8.4765,-8.4832,-8.4876,-8.4915,-8.4841,-8.5135,-8.5163,-8.5189,-8.5281,-8.5318,-8.488,-8.4879,-8.4878,-8.4877,0,-8.4032,-8.4157,-8.4271,-8.4377,-8.4451,-8.4595,-8.4599,-8.4675,-8.4652,-8.4667,-8.4836,-8.4886,-8.4993,-8.504,-8.5019,-8.5242,-8.5204,-8.5139,-8.5023,-8.5238,-8.5324,-8.5359,-8.4894,-8.489,-8.4888,-8.4885,0,0,-8.4371,-8.4467,-8.4509,-8.4556,-8.4637,-8.4732,-8.4871,-8.4978,-8.5043,-8.5118,-8.5233,-8.5388,-8.5327,-8.5385,-8.5368,-8.5466,-8.5679,-8.5387,-8.5388,-8.5439,-8.5926,-8.5975,-8.6017,-8.5646,-8.5652,-8.5658,-8.592,0,-8.4632,-8.4879,-8.4868,-8.5097,-8.5211,-8.515,-8.5271,-8.5332,-8.5349,-8.5446,-8.5462,-8.5573,-8.5485,-8.5519,-8.5612,-8.5633,-8.5776,-8.5614,-8.575,-8.5755,-8.5734,-8.6062,-8.6114,-8.6359,-8.5953,-8.5959,-8.5963,0,-8.4969,-8.5057,-8.5299,-8.5362,-8.5409,-8.5519,-8.5615,-8.571,-8.5777,-8.5781,-8.5846,-8.5814,-8.5952,-8.5833,-8.6021,-8.5911,-8.5966,-8.5984,-8.5993,-8.6005,-8.5872,-8.6082,-8.6437,-8.6474,-8.6016,-8.6012,-8.6008,0,-8.5191,-8.537,-8.5538,-8.5579,-8.5658,-8.5736,-8.5771,-8.5832,-8.5896,-8.5979,-8.602,-8.6118,-8.6171,-8.6246,-8.6239,-8.6153,-8.6431,-8.6311,-8.6436,-8.6437,-8.6498,-8.6494,-8.6867,-8.6534,-8.6533,-8.6533,-8.6532,0,-8.5483,-8.5633,-8.5638,-8.5742,-8.5907,-8.5892,-8.6055,-8.6081,-8.6135,-8.624,-8.6192,-8.6291,-8.6276,-8.6374,-8.637,-8.6526,-8.655,-8.6556,-8.6553,-8.6561,-8.656,-8.6596,-8.6579,-8.6542,-8.654,-8.6538,-8.6537,0,-8.576,-8.577,-8.5948,-8.6007,-8.6026,-8.6145,-8.6194,-8.629,-8.6302,-8.6436,-8.6466,-8.6484,-8.6597,-8.6598,-8.6727,-8.6723,-8.6914,-8.6892,-8.6893,-8.6888,-8.7014,-8.7002,-8.7422,-8.7476,-8.7109,-8.7112,-8.7115,0,-8.5945,-8.606,-8.6132,-8.62,-8.6241,-8.6351,-8.6417,-8.6405,-8.6475,-8.656,-8.6645,-8.6754,-8.6841,-8.7024,-8.7047,-8.7145,-8.7124,-8.7265,-8.7138,-8.7142,-8.7125,-8.7119,-8.7129,-8.7289,-8.7293,-8.7297,-8.7299,0,-8.6274,-8.6273,-8.6371,-8.6472,-8.6552,-8.663,-8.6702,-8.6759,-8.6755,-8.6836,-8.6953,-8.702,-8.7152,-8.726,-8.7354,-8.7387,-8.7343,-8.7339,-8.7373,-8.7382,-8.7378,-8.7381,-8.696,-8.7329,-8.7326,-8.7324,-8.7323,-8.7321,-8.651,-8.6608,-8.6674,-8.6785,-8.6838,-8.6906,-8.6999,-8.7024,-8.7121,-8.723,-8.7216,-8.7345,-8.7406,-8.7529,-8.757,-8.7669,-8.762,-8.7669,-8.7682,-8.7694,-8.7708,-8.7362,-8.7686,-8.7685,-8.7684,-8.7684,-8.7683,0,-8.6835,-8.6874,-8.6977,-8.7079,-8.7166,-8.7118,-8.7195,-8.7269,-8.7385,-8.7447,-8.7534,-8.7667,-8.7771,-8.7802,-8.7902,-8.7975,-8.7957,-8.8002,-8.7996,-8.8004,-8.7746,-8.7707,-8.8015,-8.8015,-8.8015,-8.8015,-8.8014,-8.8014,-8.7014,-8.7178,-8.7185,-8.7373,-8.741,-8.7538,-8.7586,-8.7647,-8.7697,-8.7848,-8.7936,-8.7956,-8.8005,-8.8108,-8.8201,-8.8207,-8.8246,-8.8299,-8.8297,-8.8056,-8.8022,-8.7991,-8.7953,-8.8308,-8.8308,-8.8546,-8.8548,-8.855]}]]